Miscellaneous Local Product
Issued by NWS Hastings, NE

Home | Current Version | Previous Version | Text Only | Print | Product List | Glossary Off
Versions: 1 2 3 4 5 6 7 8 9 10 11 12 13 14 15 16 17 18 19 20 21 22 23 24 25 26 27 28 29 30 31 32 33 34 35 36 37 38 39 40 41 42 43 44 45 46 47 48 49 50

000
AXUS43 KGID 241102
MISGRI

GID CWA HOURLY WEATHER ROUNDUP
NATIONAL WEATHER SERVICE HASTINGS NE
600 AM CDT TUE MAY 24 2016

NOTE: "FAIR" INDICATES FEW OR NO CLOUDS BELOW 12,000 FEET WITH NO
SIGNIFICANT WEATHER AND/OR OBSTRUCTIONS TO VISIBILITY.

...SOUTH CENTRAL NEBRASKA...

CITY           SKY/WX    TMP DP  RH WIND       PRES   REMARKS
GRAND ISLAND   CLOUDY    58  58 100 SW3       29.87R FOG
HASTINGS       CLOUDY    61  59  93 E5        29.85R
KEARNEY        CLOUDY    61  57  88 NW3       29.88R
ORD            CLOUDY    52  51  97 CALM      29.86R
YORK           CLOUDY    59  57  94 N3        29.85R
AURORA         CLOUDY    59  59 100 W3        29.87R FOG
LEXINGTON      CLOUDY    55  49  81 W8        29.91R
HOLDREGE       CLOUDY    62  60  95 SW6       29.90R
HEBRON         TSTM      64  57  77 W22G28    29.89R

...NEBRASKA PANHANDLE...

CITY           SKY/WX    TMP DP  RH WIND       PRES   REMARKS
CHADRON        CLEAR     37  34  89 NE6       29.88R WCI  32
ALLIANCE       CLEAR     35  33  92 CALM      29.88S
SCOTTSBLUFF    CLEAR     39  36  89 CALM      29.90R
SIDNEY         MOCLDY    42  39  89 NW7       29.92R

...WESTERN AND NORTH CENTRAL NEBRASKA...

CITY           SKY/WX    TMP DP  RH WIND       PRES   REMARKS
VALENTINE      CLEAR     43  40  89 W6        29.85R
AINSWORTH      CLEAR     50  43  76 W5        29.86R
ONEILL         CLOUDY    53  46  77 SW5       29.83S
BROKEN BOW     CLOUDY    50  47  89 CALM      29.89R
IMPERIAL       CLOUDY    56  47  71 SE8       29.86R
NORTH PLATTE   CLOUDY    53  49  86 CALM      29.90R
MCCOOK         CLOUDY    57  48  72 N14       29.89R

...EASTERN NEBRASKA...

CITY           SKY/WX    TMP DP  RH WIND       PRES   REMARKS
NORFOLK        CLOUDY    55  53  93 SE5       29.84R
SO SIOUX CITY  CLOUDY    59  57  93 E5        29.83S
TEKAMAH        CLOUDY    58  56  93 S5        29.83S
COLUMBUS       CLOUDY    55  50  82 CALM      29.87R
ALBION         CLOUDY    57  55  91 CALM      29.85R
OMAHA EPPLEY   CLOUDY    61  58  90 S3        29.84R
OFFUTT AFB     CLOUDY    61  61 100 SE3       29.84R
MILLARD        CLOUDY    60  59  96 CALM      29.84R
LINCOLN        CLOUDY    60  58  92 CALM      29.85R
NEBRASKA CITY  CLOUDY    64  64 100 SE8       29.85S
BEATRICE       CLOUDY    62  60  90 CALM      29.84R
FALLS CITY     CLOUDY    66  62  87 W6        29.87R

...NORTHERN KANSAS...

CITY           SKY/WX    TMP DP  RH WIND       PRES   REMARKS
GOODLAND       CLOUDY    55  44  66 NE14      29.87R
HILL CITY      CLOUDY    59  57  93 SE12      29.85S
NORTON         LGT RAIN  59  55  88 E6        29.88F
PHILLIPSBURG   MOCLDY    61  59  94 CALM      29.84F THUNDER
SMITH CENTER   TSTM      61  57  88 W9        29.88R
BELOIT         CLOUDY    59  57  94 W6        29.92R
HAYS           CLOUDY    57  48  72 E18       29.87F
RUSSELL        TSTM      57  56  96 E18G24    29.91S FOG
CONCORDIA      TSTM      60  57  89 S10       29.88F
SALINA         CLOUDY    64  60  87 E12       29.87F
TOPEKA         LGT RAIN  61  58  90 E7        29.88F



USA.gov is the U.S. government's official web portal to all federal, state and local government web resources and services.